Miscellaneous Local Product
Issued by NWS North Platte, NE

Home | Current Version | Previous Version | Graphics & Text | Print | Product List | Glossary On
Versions: 1 2 3 4 5 6 7 8 9 10 11 12 13 14 15 16 17 18 19 20 21 22 23 24 25 26 27 28 29 30 31 32 33 34 35 36 37 38 39 40 41 42 43 44 45 46 47 48 49 50
000
AXUS43 KLBF 100010
MISLBF


WESTERN AND NORTH CENTRAL NEBRASKA HOURLY WEATHER ROUNDUP
NATIONAL WEATHER SERVICE NORTH PLATTE NE
600 PM CST TUE FEB 09 2016

NOTE: "FAIR" INDICATES FEW OR NO CLOUDS BELOW 12,000 FEET WITH NO
SIGNIFICANT WEATHER AND/OR OBSTRUCTIONS TO VISIBILITY.

NOTE: STATIONS NOT REPORTING VARIABLES SUCH AS SKY/WEATHER OR
PRESSURE ARE PROVIDED BY THE NEBRASKA DEPARTMENT OF
ROADS...RAWS...AND APRS NETWORKS...AND ARE NOT UNDER
NATIONAL WEATHER SERVICE QUALITY CONTROL.

...OBSERVATIONS IN AND NEAR THE EASTERN PANHANDLE OF NEBRASKA...

CITY           SKY/WX    TMP DP  RH WIND       PRES   REMARKS
PINE RIDGE     CLOUDY    44  30  57 E3        30.13F
CHADRON        PTCLDY    48  33  56 W12       30.14S
ALLIANCE       CLEAR     39  31  72 W14       30.15S WCI  31
SIDNEY         CLEAR     40  31  70 W10       30.20F WCI  33
$$

...OBSERVATIONS IN NORTH CENTRAL NEBRASKA...

CITY           SKY/WX    TMP DP  RH WIND       PRES   REMARKS
VALENTINE      CLOUDY    39  27  62 NW8       30.14S WCI  33
THEDFORD       CLOUDY    42  29  61 W3        30.15S
AINSWORTH      CLOUDY    35  22  58 CALM      30.14F
O`NEILL        CLOUDY    31  17  55 CALM      30.19S
ORD            CLOUDY    27  16  63 SW6       30.20F WCI  20
BROKEN BOW     CLOUDY    29  21  72 S7        30.18F WCI  22
VALENTINE NWR    N/A     40  24  52 NW9         N/A  WCI  34
BUTTE            N/A     32  15  49 CALM        N/A
HALSEY           N/A     39  23  53 CALM        N/A
CHAMBERS         N/A     30  13  48 S3          N/A
EWING            N/A     26  17  67 CALM        N/A
$$

...OBSERVATIONS IN SOUTHWEST NEBRASKA AND FAR NORTHEAST COLORADO...

CITY           SKY/WX    TMP DP  RH WIND       PRES   REMARKS
WRAY           FAIR      44  32  63 W8        30.22F
HOLYOKE        FAIR      43  32  65 W12       30.19F
IMPERIAL       CLOUDY    42  30  62 W10       30.18F
OGALLALA       CLOUDY    40  32  71 SW6       30.17S
NORTH PLATTE   PTCLDY    35  23  61 SW3       30.17F
MCCOOK         CLOUDY    36  23  59 S6        30.21F WCI  31
LEXINGTON      CLOUDY    32  22  67 S6        30.20F WCI  26
PAXTON           N/A     38  33  83 CALM        N/A
STAPLETON        N/A     33  26  75 CALM        N/A
GOTHENBURG       N/A     36  23  59 CALM        N/A
CALLAWAY         N/A     31  25  79 S7          N/A  WCI  24
$$

...OBSERVATIONS IN CENTRAL LINCOLN COUNTY AREA...

CITY           SKY/WX    TMP DP  RH WIND       PRES   REMARKS
N.P. AIRPORT   PTCLDY    35  23  61 SW3       30.17F
N.P. DOWNTOWN    N/A     36  27  68 CALM        N/A
N.P. SOUTHEAST   N/A     36  26  67 CALM        N/A
N.P. HILLCREST   N/A     36  26  65 CALM        N/A
$$

...SOME OBSERVATIONS FROM AROUND THE REGION...

CITY           SKY/WX    TMP DP  RH WIND       PRES   REMARKS
DENVER         PTCLDY    47  23  38 S5        30.28S
LARAMIE        CLEAR     39  22  50 N9        30.33R WCI  33
CHEYENNE       CLEAR     45  22  40 NW20G26   30.26F
SCOTTSBLUFF    CLEAR     47  31  53 NW13      30.19F
RAPID CITY     CLOUDY    45  29  53 NE10      30.10S
BISMARCK       CLOUDY    39  19  44 N8        30.14S WCI  33
PIERRE         CLOUDY    33  20  58 S6        30.13F WCI  28
WINNER         CLOUDY    35  19  52 SW5       30.16F WCI  31
SIOUX FALLS    CLOUDY    23  12  62 NW7       30.21F WCI  15
OMAHA          PTCLDY    21  11  65 N8        30.27R WCI  11
GRAND ISLAND   CLOUDY    25  14  63 SW8       30.25F WCI  16
KANSAS CITY    PTCLDY    24   5  44 NW12      30.23R WCI  13
WICHITA        MOCLDY    36  16  44 N13       30.30R WCI  27
OKLAHOMA CITY  MOCLDY    46  20  35 N13       30.29R
LIBERAL        CLEAR     52  27  37 N7        30.27R
HAYS           CLOUDY    36  16  44 NE3       30.28S
GOODLAND       CLEAR     42  30  62 W10       30.22S
$$




USA.gov is the U.S. government's official web portal to all federal, state and local government web resources and services.